Terminal Aerodrome Forecast
Issued by NWS

Home | Current Version | Previous Version | Text Only | Print | Product List | Glossary Off
Versions: 1 2 3 4 5 6 7 8 9 10 11 12 13 14 15 16 17 18 19 20

000
FTUS43 KTOP 151100
TAFMHK
TAF
KMHK 151133Z 1512/1612 22005KT P6SM FEW025 SCT040
     FM151500 01010KT 6SM -RA BR SCT018 BKN025
     FM151800 02011KT P6SM SCT040
     FM160100 04002KT P6SM SKC=

USA.gov is the U.S. government's official web portal to all federal, state and local government web resources and services.